EHI
0 0 0 0 0 0 0 0 0 0 0 0 0 0 0 0 0 0 0 0 0 0 0 0 0 0 0 0 0 0 0 0 0 0 0 0 0 0 0 0 0 0 0
0 0 0 0 0 0 0 0 0 0 0 0 0 0 0 0 0 0 0 0 0 0 0 0 0 0 0 0 0 0 0 0 0 0 0 0 0 0 0 0 0 0 0
0 0 0 0 0 0 0 0 0 0 0 0 0 0 0 0 0 0 0 0 0 0 0 0 0 0 0 0 0 0 0 0 0 0 0 0 0 0 0 0 0 0 0
0 0 0 0 0 0 0 0 0 0 0 0 0 0 0 0 0 0 0 0 0 0 0 0 0 0 0 0 0 0 0 0 0 0 0 0 0 0 0 0 0 0 0
0 0 0 0 0 0 0 0 0 0 0 0 0 0 0 0 0 0 0 0 0 0 0 0 0 0 0 0 0 0 0 0 0 0 0 0 0 0 0 0 0 0 0
0 0 0 0 0 0 0 0 0 0 0 0 0 0 0 0 0 0 0 0 0 0 0 0 0 0 0 0 0 0 0 0 0 0 0 0 0 0 0 0 0 0 0
0 0 0 0 0 0 0 0 0 0 0 0 0 0 0 0 0 0 0 0 0 0 0 0 0 0 0 0 0 0 0 0 0 0 0 0 0 0 0 0 0 0 0
0 0 0 0 0 0 0 0 0 0 0 0 0 0 0 0 0 0 0 0 0 0 0 0 0 0 0 0 0 0 0 0 0 0 0 0 0 0 0 0 0 0 0
0 0 0 0 0 0 0 0 0 0 0 0 0 0 0 0 0 0 0 0 0 0 0 0 0 0 0 0 0 0 0 0 0 0 0 0 0 0 0 0 0 0 0
0 0 0 0 0 0 0 0 0 0 0 0 0 0 0 0 0 0 0 0 0 0 0 0 0 0 0 0 0 0 0 0 0 0 0 0 0 0 0 0 0 0 0
0 0 0 0 0 0 0 0 0 0 0 0 0 0 0 0 0 0 0 0 0 0 0 0 0 0 0 0 0 0 0 0 0 0 0 0 0 0 0 0 0 0 0
0 0 0 0 0 0 0 0 0 0 0 0 0 0 0 0 0 0 0 0 0 0 0 0 0 0 0 0 0 0 0 0 0 0 0 0 0 0 0 0 0 0 0
0 0 0 0 0 0 0 0 0 0 0 0 0 0 0 0 0 0 0 0 0 0 0 0 0 0 0 0 0 0 0 0 0 0 0 0 0 0 0 0 0 0 0
0 0 0 0 0 0 0 0 0 0 0 0 0 0 0 0 0 0 0 0 0 0 0 0 0 0 0 0 0 0 0 0 0 0 0 0 0 0 0 0 0 0 0
0 0 0 0 0 0 0 0 0 0 0 0 0 0 0 0 0 0 0 0 0 0 0 0 0 0 0 0 0 0 0 0 0 0 0 0 0 0 0 0 0 0 0
0 0 0 0 0 0 0 0 0 0 0 0 0 0 0 0 0 0 0 0 0 0 0 0 0 0 0 0 0 0 0 0 0 0 0 0 0 0 0 0 0 0 0
0 0 0 0 0 0 0 0 0 0 0 0 0 0 0 0 0 0 0 0 0 0 0 0 0 0 0 0 0 0 0 0 0 0 0 0 0 0 0 0 0 0 0
0 0 0 0 0 0 0 0 0 0 0 0 0 0 0 0 0 0 0 0 0 0 0 0 0 0 0 0 0 0 0 0 0 0 0 0 0 0 0 0 0 0 0
0 0 0 0 0 0 0 0 0 0 0 0 0 0 0 0 0 0 0 0 0 0 0 0 0 0 0 0 0 0 0 0 0 0 0 0 0 0 0 0 0 0 0
0 0 0 0 0 0 0 0 0 0 0 0 0 0 0 0 0 0 0 0 0 0 0 0 0 0 0 0 0 0 0 0 0 0 0 0 0 0 0 0 0 0 0
0 0 0 0 0 0 0 0 0 0 0 0 0 0 0 0 0 0 0 0 0 0 0 0 0 0 0 0 0 0 0 0 0 0 0 0 0 0 0 0 0 0 0
0 0 0 0 0 0 0 0 0 0 0 0 0 0 0 0 0 0 0 0 0 0 0 0 0 0 0 0 0 0 0 0 0 0 0 0 0 0 0 0 0 0 0
0 0 0 0 0 0 0 0 0 0 0 0 0 0 0 0 0 0 0 0 0 0 0 0 0 0 0 0 0 0 0 0 0 0 0 0 0 0 0 0 0 0 0
0 0 0 0 0 0 0 0 0 0 0 0 0 0 0 0 0 0 0 0 0 0 0 0 0 0 0 0 0 0 0 0 0 0 0 0 0 0 0 0 0 0 0
0 0 0 0 0 0 0 0 0 0 0 0 0 0 0 0 0 0 0 0 0 0 0 0 0 0 0 0 0 0 0 0 0 0 0 0 0 0 0 0 0 0 0
0 0 0 0 0 0 0 0 0 0 0 0 0 0 0 0 0 0 0 0 0 0 0 0 0 0 0 0 0 0 0 0 0 0 0 0 0 0 0 0 0 0 0
Wind_Speed
7 8 8 9 9 10 10 11 12 12 14 14 15 16 16 16 16 15 15 15 14 12 11 11 11 11 9 8 9 9 9 9 11 11 10 10 12 11 11 10 10 9 8
7 8 9 9 9 10 10 11 12 13 13 14 15 15 15 16 15 15 15 15 14 13 12 11 10 9 10 8 8 8 8 8 9 12 10 10 11 11 11 11 9 8 7
7 8 9 9 9 10 11 11 12 12 13 13 14 15 15 15 14 13 13 13 13 12 12 12 11 10 10 8 8 7 7 7 7 9 9 8 8 8 10 10 10 8 8
7 8 9 9 10 10 11 11 11 12 13 13 14 14 14 15 13 12 12 12 12 12 12 12 11 11 10 10 8 7 7 7 7 7 7 7 7 9 8 8 9 8 8
7 8 9 9 9 10 10 11 11 12 12 12 13 13 14 13 12 12 10 11 12 12 12 12 12 14 16 12 9 10 9 7 7 7 6 7 7 8 8 8 9 9 8
7 8 8 9 9 10 10 11 11 11 12 12 12 13 13 11 18 18 13 10 11 11 12 12 12 13 15 16 17 15 14 11 10 8 7 8 9 9 9 9 8 8 6
7 8 8 8 9 10 10 10 11 11 12 12 12 12 13 14 20 18 16 10 10 10 11 11 10 12 14 11 13 14 12 14 13 9 9 9 10 10 11 10 9 8 8
7 8 8 8 9 10 10 10 11 11 11 11 11 12 12 13 19 18 16 10 8 9 10 11 11 12 13 14 12 11 10 10 11 8 8 9 9 10 9 9 10 10 9
7 7 8 8 9 10 10 11 11 10 11 11 11 11 12 13 17 18 15 9 7 8 8 9 11 11 17 18 13 11 11 10 11 13 12 11 12 12 10 7 8 7 5
7 7 8 8 9 10 10 11 10 10 10 10 10 11 11 12 16 18 16 8 7 7 7 7 11 14 17 18 12 11 12 12 11 11 10 10 9 9 10 6 6 6 5
6 8 8 8 9 9 10 9 10 9 10 10 11 10 11 12 15 17 17 8 7 7 6 6 7 14 16 16 14 10 14 14 10 10 9 8 7 6 7 6 5 5 6
6 8 8 8 7 7 9 9 9 9 10 10 10 10 9 10 12 15 17 13 10 6 5 6 7 13 14 14 11 14 16 13 8 8 8 8 8 8 8 8 8 7 7
6 7 7 8 7 7 8 9 8 8 7 8 9 9 9 9 11 17 16 13 11 7 5 7 10 12 12 9 11 14 12 8 8 8 9 9 9 9 9 8 8 7 6
7 7 7 7 7 7 6 6 6 7 7 8 9 9 10 10 10 10 7 6 8 6 5 6 9 9 8 8 9 8 7 7 8 8 8 9 9 9 8 8 8 7 5
6 6 6 6 7 7 6 6 7 7 8 10 9 9 10 10 14 20 13 8 7 6 5 4 5 5 5 5 5 6 6 7 7 8 8 9 9 9 8 8 7 6 5
5 5 4 5 5 5 7 7 6 8 12 12 12 12 11 15 21 20 18 16 14 11 5 5 5 5 6 6 6 6 6 6 7 7 8 8 9 9 9 8 7 6 5
6 5 4 4 5 5 6 7 8 8 9 9 11 13 14 18 19 18 18 16 13 11 5 5 5 5 5 5 5 5 5 6 6 7 7 8 8 8 8 8 8 7 6
6 6 5 4 4 5 5 5 6 8 9 7 8 11 15 17 17 16 17 13 8 7 6 6 5 5 5 5 5 5 5 5 5 6 7 7 8 8 8 8 8 9 7
6 4 4 4 4 4 5 5 5 7 7 8 8 8 13 15 14 13 13 7 8 8 7 7 6 5 5 5 4 4 4 4 5 5 6 7 7 7 8 8 8 10 8
6 7 6 4 4 4 4 4 5 6 6 7 7 8 10 10 8 9 8 8 8 8 8 7 6 6 5 4 4 3 3 3 4 4 5 6 6 7 7 8 8 7 6
5 5 7 5 4 4 4 4 4 5 6 6 6 8 13 9 8 9 8 8 8 9 9 8 6 6 5 4 3 3 4 3 3 3 4 5 6 6 6 7 7 7 6
6 5 5 4 4 4 4 4 4 5 6 7 7 7 12 8 7 7 8 8 9 9 8 7 7 6 5 4 4 3 3 3 2 2 3 4 4 5 6 6 7 7 6
7 6 5 5 4 5 4 4 4 4 5 6 6 7 7 7 7 8 9 9 9 9 8 7 7 6 5 4 4 3 3 3 2 1 2 2 3 4 5 6 7 7 7
8 7 6 5 5 4 4 4 4 4 5 5 6 6 7 7 8 9 9 9 9 9 8 8 7 9 9 5 3 3 3 2 2 1 1 1 2 3 4 5 6 7 6
8 8 7 6 5 5 4 4 4 4 4 5 5 6 6 7 8 8 9 9 10 10 11 10 7 7 8 7 4 2 3 4 4 3 2 1 1 2 3 4 5 6 6
9 9 7 6 6 5 4 4 4 4 4 4 5 5 6 7 7 8 8 8 9 10 10 9 10 10 8 5 3 3 4 5 6 6 3 1 1 2 2 3 4 5 6
Wind_Direction
318 318 316 318 319 318 317 320 321 321 322 323 322 322 322 322 323 324 323 324 319 314 309 301 294 290 284 278 275 274 274 276 281 291 295 303 310 314 313 308 303 300 295
313 311 312 315 317 318 320 322 322 321 322 323 323 323 324 324 325 326 328 331 331 328 327 321 313 305 295 285 282 280 280 279 282 291 300 309 314 318 317 313 309 302 297
306 307 310 314 318 320 321 321 321 321 322 323 324 325 324 325 326 325 331 336 340 339 337 335 330 326 321 309 300 299 293 290 287 291 299 310 316 326 322 319 316 313 306
302 304 308 314 317 317 317 318 320 320 321 323 324 324 323 324 327 329 339 342 344 344 344 342 344 342 339 339 336 332 325 315 310 305 308 317 324 331 330 332 328 325 315
296 301 306 310 312 312 314 317 318 319 320 321 321 323 325 326 328 341 348 346 347 348 346 347 350 355 358 358 359 357 350 343 336 330 327 328 336 340 339 333 326 321 309
290 294 301 305 309 311 314 316 317 318 320 320 321 323 324 326 331 346 357 351 350 350 349 348 349 356 358 1 2 3 3 357 350 341 337 336 336 336 332 329 328 329 318
283 289 295 300 305 309 312 312 315 318 318 318 320 321 322 324 331 340 352 351 349 349 347 347 349 350 355 353 353 355 357 357 355 343 334 333 329 332 327 324 324 317 299
278 284 291 300 304 308 310 312 315 315 315 315 316 318 319 321 328 335 341 339 340 345 346 345 346 347 350 353 349 348 348 351 346 341 330 324 323 324 323 315 308 303 289
276 287 298 302 303 307 309 313 314 313 311 312 313 315 317 319 325 329 333 324 328 334 340 341 342 344 348 353 348 344 343 345 342 338 331 326 326 329 335 327 323 322 312
280 292 297 299 300 304 307 310 311 310 307 310 310 312 314 314 318 321 323 317 318 322 330 333 338 346 348 351 348 344 343 342 337 334 332 332 332 332 339 334 321 316 311
284 290 293 296 300 302 304 307 309 309 307 309 311 313 312 313 315 316 318 317 318 316 321 328 332 343 346 348 348 345 343 339 332 331 331 335 338 337 336 331 317 299 292
279 285 292 298 301 298 305 308 311 312 311 314 316 317 317 318 315 315 316 319 323 311 308 317 327 337 339 342 346 346 345 341 335 335 338 341 340 338 333 325 314 294 271
276 286 295 300 299 301 307 312 315 316 314 316 317 319 321 320 318 321 317 313 314 308 301 306 318 330 332 332 341 345 345 343 341 341 341 339 335 330 326 325 321 308 283
274 287 296 301 304 309 310 310 313 313 315 316 321 323 322 321 325 329 326 316 307 300 298 301 308 314 317 322 331 339 342 344 344 339 336 334 333 334 337 337 333 331 323
267 281 291 296 303 309 312 311 310 306 310 317 321 322 322 324 331 339 346 344 337 327 312 299 305 316 322 329 332 337 340 343 344 342 339 338 339 340 341 341 337 337 341
258 275 286 295 303 308 313 312 305 304 316 321 323 324 321 324 332 341 346 348 344 342 326 310 316 320 323 325 329 333 338 343 343 341 341 342 341 341 342 343 344 346 349
243 264 277 283 295 305 310 315 319 321 321 323 330 333 333 334 339 341 344 345 342 344 328 317 317 318 319 319 321 324 330 337 337 338 342 343 342 343 345 347 350 351 353
233 248 261 274 286 293 300 305 309 317 323 327 332 335 337 338 341 343 346 342 339 343 333 322 314 313 312 314 314 317 321 328 336 337 341 344 345 345 349 351 354 355 353
222 235 247 263 274 284 292 297 302 309 313 318 323 333 338 336 338 345 348 343 336 334 331 324 316 311 307 306 307 306 310 319 332 332 339 344 346 348 351 352 354 358 3
215 228 245 257 265 275 284 295 304 310 314 317 324 332 331 333 338 341 342 337 332 329 327 323 317 311 307 300 297 293 296 306 322 327 337 342 346 349 352 354 356 359 6
204 213 227 242 252 265 277 289 300 305 310 315 319 325 333 332 329 331 332 331 329 325 323 321 316 310 305 298 289 279 279 293 311 324 333 341 346 351 354 357 359 4 10
197 204 211 226 240 252 269 281 291 298 306 313 318 324 331 330 327 327 327 326 324 321 319 317 312 308 304 298 286 272 266 272 288 307 326 340 346 353 359 5 7 10 18
194 201 208 218 229 247 259 268 282 295 305 312 317 322 327 328 326 325 324 323 322 322 322 318 314 311 309 296 280 263 254 250 254 279 311 340 351 359 6 12 16 20 26
192 199 206 211 218 231 247 263 278 291 302 309 314 319 322 322 320 321 322 322 323 323 324 321 315 315 315 306 282 263 247 224 200 194 239 341 4 6 13 17 21 26 32
190 196 202 207 213 222 235 250 267 282 294 303 309 315 317 317 318 320 323 324 325 325 327 325 321 322 320 310 291 263 231 211 189 167 168 156 54 29 26 27 30 38 42
189 194 199 202 208 215 225 238 253 271 284 295 303 308 311 313 315 318 322 325 327 325 325 325 328 331 326 316 278 251 222 199 182 176 165 142 105 69 54 51 49 51 57